Location: Ostrava
(49.8330°N, 18.2830°E)
Time: 09:43:08
(UTC+01:00)

Cosmos 2221 - Visible Passes

Search period start: 19 January 2017 00:00
Search period end: 29 January 2017 00:00
Orbit: 593 x 618 km, 82.5° (Epoch: 18 January)

Date Brightness Start Highest point End Pass type
(mag) Time Alt. Az. Time Alt. Az. Time Alt. Az.
19 Jan 4.4 04:56:05 10° SSE 04:59:53 31° E 05:03:41 10° NNE visible
19 Jan 3.3 06:33:38 10° SW 06:37:27 30° WNW 06:41:17 10° N visible
20 Jan 3.4 05:08:43 10° SSE 05:12:53 49° E 05:17:04 10° NNE visible
20 Jan 3.8 06:47:33 10° WSW 06:50:46 20° WNW 06:53:59 10° NNW visible
21 Jan 2.5 05:21:38 10° S 05:25:58 79° E 05:30:17 10° NNE visible
21 Jan 4.7 17:01:48 10° NNW 17:05:30 29° W 17:09:13 10° SSW visible
22 Jan 5.5 03:59:37 10° ESE 04:02:01 15° E 04:04:26 10° NE visible
22 Jan 2.4 05:34:48 10° SSW 05:39:05 64° WNW 05:43:23 10° N visible
22 Jan 5.4 17:15:25 10° NW 17:18:27 19° W 17:21:28 10° SW visible
23 Jan 4.8 04:11:33 10° SE 04:14:56 23° E 04:18:19 10° NE visible
23 Jan 2.9 05:48:13 10° SW 05:52:17 40° WNW 05:56:22 10° N visible
23 Jan 5.7 17:29:35 10° WNW 17:31:19 12° W 17:33:03 10° WSW visible
24 Jan 4.0 04:23:58 10° SSE 04:27:53 35° E 04:31:49 10° NNE visible
24 Jan 3.4 06:01:55 10° SW 06:05:33 26° WNW 06:09:12 10° NNW visible
25 Jan 3.0 04:40:38 55° ESE 04:40:55 57° E 04:45:08 10° NNE visible
25 Jan 3.9 06:17:38 16° W 06:18:53 18° WNW 06:21:49 10° NNW visible
26 Jan 3.0 04:55:09 49° N 04:55:09 49° N 04:58:19 10° N visible
26 Jan 4.3 06:32:05 12° WNW 06:32:18 12° WNW 06:33:53 10° NW visible
27 Jan 5.5 03:32:10 12° NE 03:32:10 12° NE 03:32:45 10° NE visible
27 Jan 3.7 05:09:06 29° NNW 05:09:06 29° NNW 05:11:23 10° N visible
28 Jan 5.3 03:45:52 13° NE 03:45:52 13° NE 03:46:28 10° NNE visible
28 Jan 4.2 05:22:47 20° NNW 05:22:47 20° NNW 05:24:20 10° N visible
